Jackson, MS

10:47 PM CDT on July 23, 2017 (GMT -0500)
Jackson-Evers International

Weather History for KJAN - March, 2015

Change the Weather History Date:

Tuesday, March 31, 2015

  Actual Average Record
Temperature  
Mean Temperature 70 °F 60 °F  
Max Temperature 83 °F 72 °F 87 °F (1974)
Min Temperature 57 °F 48 °F 29 °F (1987)
Degree Days  
Heating Degree Days 0 6  
Month to date heating degree days 195 278  
Since 1 July heating degree days 2321 2270  
Cooling Degree Days 5 1  
Month to date cooling degree days 37 27  
Year to date cooling degree days 37 37  
Growing Degree Days 20 (Base 50)    
Moisture  
Dew Point 57 °F    
Average Humidity 65    
Maximum Humidity 93    
Minimum Humidity 37    
Precipitation  
Precipitation 0.00 in 0.18 in 3.10 in (1922)
Month to date precipitation 7.27 5.04  
Year to date precipitation 17.47 14.77  
Sea Level Pressure  
Sea Level Pressure 30.04 in    
Wind  
Wind Speed 8 mph (SSW)    
Max Wind Speed 17 mph    
Max Gust Speed 23 mph    
Visibility 10 miles    
Events      
T = Trace of Precipitation, MM = Missing Value Source: NWS Daily Summary

Daily Weather History Graph

Daily Weather History Graph

Search for Another Location

Airport or City:

Trip Planner

Search our weather history database for the weather conditions in past years. The results will help you decide how hot, cold, wet, or windy it might be!

Date:

Astronomy

Mar. 31, 2015 Rise Set
Actual Time 6:50 AM CDT 7:19 PM CDT
Civil Twilight 6:25 AM CDT 7:44 PM CDT
Nautical Twilight 5:56 AM CDT 8:12 PM CDT
Astronomical Twilight 5:27 AM CDT 8:42 PM CDT
Moon 4:14 PM CDT (3/31) 4:37 AM CDT (3/31)
Length of Visible Light 13h 18m
Length of Day
12h 29m
Waxing Gibbous, 87% of the Moon is Illuminated
Mar 31
Waxing Gibbous
Apr 4
Full
Apr 11
Last Quarter
Apr 18
New
Apr 25
First Quarter

Hourly Weather History & Observations

Time (CDT) Temp. Heat Index Dew Point Humidity Pressure Visibility Wind Dir Wind Speed Gust Speed Precip Events Conditions
12:54 AM 60.1 °F - 57.0 °F 90% 30.09 in 10.0 mi Calm Calm - N/A   Clear
1:54 AM 61.0 °F - 57.0 °F 87% 30.08 in 10.0 mi Calm Calm - N/A   Clear
2:54 AM 62.1 °F - 57.0 °F 84% 30.06 in 10.0 mi SSW 6.9 mph - N/A   Clear
3:54 AM 60.1 °F - 55.9 °F 86% 30.06 in 10.0 mi SSW 5.8 mph - N/A   Clear
4:54 AM 60.1 °F - 55.9 °F 86% 30.05 in 10.0 mi South 4.6 mph - N/A   Clear
5:54 AM 59.0 °F - 55.9 °F 90% 30.06 in 10.0 mi South 4.6 mph - N/A   Clear
6:54 AM 57.0 °F - 55.0 °F 93% 30.08 in 9.0 mi South 4.6 mph - N/A   Clear
7:54 AM 62.1 °F - 59.0 °F 90% 30.09 in 10.0 mi SSW 5.8 mph - N/A   Mostly Cloudy
8:40 AM 64.0 °F - 60.1 °F 87% 30.11 in 10.0 mi SW 6.9 mph - N/A   Mostly Cloudy
8:54 AM - - - N/A% 30.10 in 10.0 mi SW 5.8 mph - N/A   Mostly Cloudy
9:54 AM 72.0 °F - 59.0 °F 64% 30.10 in 10.0 mi WSW 10.4 mph - N/A   Mostly Cloudy
10:54 AM 72.0 °F - 60.1 °F 66% 30.11 in 10.0 mi WSW 10.4 mph - N/A   Mostly Cloudy
11:54 AM 73.9 °F - 60.1 °F 62% 30.09 in 10.0 mi SSW 16.1 mph - N/A   Mostly Cloudy
12:54 PM 75.0 °F - 59.0 °F 57% 30.07 in 10.0 mi WSW 11.5 mph 17.3 mph N/A   Mostly Cloudy
1:54 PM 78.1 °F - 57.9 °F 50% 30.03 in 10.0 mi SSW 9.2 mph - N/A   Mostly Cloudy
2:54 PM 81.0 °F 80.7 °F 55.0 °F 41% 29.99 in 10.0 mi SW 15.0 mph 19.6 mph N/A   Mostly Cloudy
3:54 PM 82.0 °F 81.3 °F 54.0 °F 38% 29.95 in 10.0 mi SSW 13.8 mph 17.3 mph N/A   Mostly Cloudy
4:54 PM 82.0 °F 81.2 °F 53.1 °F 37% 29.95 in 10.0 mi WSW 8.1 mph - N/A   Mostly Cloudy
5:54 PM 79.0 °F - 54.0 °F 42% 29.96 in 10.0 mi SSW 10.4 mph - N/A   Mostly Cloudy
6:54 PM 77.0 °F - 54.0 °F 45% 29.96 in 10.0 mi SW 9.2 mph - N/A   Mostly Cloudy
7:54 PM 72.0 °F - 55.0 °F 55% 29.98 in 10.0 mi South 3.5 mph - N/A   Mostly Cloudy
8:54 PM 70.0 °F - 55.9 °F 61% 29.98 in 10.0 mi South 6.9 mph - N/A   Partly Cloudy
9:54 PM 69.1 °F - 55.9 °F 63% 29.98 in 10.0 mi SSW 8.1 mph - N/A   Clear
10:54 PM 68.0 °F - 57.0 °F 68% 29.98 in 10.0 mi SSW 9.2 mph - N/A   Clear
11:54 PM 66.0 °F - 57.0 °F 73% 29.99 in 10.0 mi SSW 5.8 mph - N/A   Clear